• In Hungary
  • List of Countries
  • For 7 days
  • Water Temperature
  • Satellite Maps
  • Weather Map
  • News
  • Weather Widgets
  • user-avatar
    Login

    Hourly Weather Vygolovo

    Today, 23 October, Tuesday

    Time Temperature Precipitation Wind Pressure Humidity
    00:00 +3°C° 0.3 mm 5 mps 744 mmHg 83%
    01:00 +3°C° 0.3 mm 5 mps 744 mmHg 84%
    02:00 +4°C° 0.3 mm 4 mps 743 mmHg 85%
    03:00 +4°C° 0.5 mm 4 mps 743 mmHg 86%
    04:00 +4°C° 0.5 mm 4 mps 742 mmHg 88%
    05:00 +4°C° 0.5 mm 4 mps 742 mmHg 89%
    06:00 +5°C° 0.3 mm 4 mps 742 mmHg 89%
    07:00 +5°C° 0.3 mm 3 mps 741 mmHg 89%
    08:00 +5°C° 0.3 mm 3 mps 741 mmHg 88%
    09:00 +5°C° 0 mm 3 mps 741 mmHg 84%
    10:00 +7°C° 0 mm 3 mps 741 mmHg 79%
    11:00 +7°C° 0 mm 3 mps 741 mmHg 75%
    12:00 +7°C° 0 mm 2 mps 740 mmHg 73%
    13:00 +7°C° 0 mm 2 mps 740 mmHg 71%
    14:00 +7°C° 0 mm 2 mps 739 mmHg 69%
    15:00 +7°C° 0 mm 1 mps 739 mmHg 74%
    16:00 +6°C° 0 mm 1 mps 738 mmHg 78%
    17:00 +6°C° 0 mm 1 mps 738 mmHg 83%
    18:00 +5°C° 0 mm 1 mps 737 mmHg 84%
    19:00 +5°C° 0 mm 1 mps 737 mmHg 85%
    20:00 +4°C° 0 mm 2 mps 736 mmHg 86%
    21:00 +4°C° 0 mm 2 mps 735 mmHg 86%
    22:00 +4°C° 0 mm 2 mps 735 mmHg 86%
    23:00 +4°C° 0 mm 2 mps 734 mmHg 86%

    Tomorrow, 24 October, Wednesday

    Time Temperature Precipitation Wind Pressure Humidity
    00:00 +4°C° 0 mm 2 mps 733 mmHg 86%
    01:00 +3°C° 0 mm 2 mps 732 mmHg 86%
    02:00 +3°C° 0 mm 2 mps 732 mmHg 86%
    03:00 +3°C° 0 mm 2 mps 731 mmHg 87%
    04:00 +2°C° 0 mm 3 mps 730 mmHg 88%
    05:00 +2°C° 0 mm 3 mps 730 mmHg 89%
    06:00 +2°C° 0 mm 3 mps 729 mmHg 88%
    07:00 +2°C° 0 mm 3 mps 729 mmHg 87%
    08:00 +3°C° 0 mm 3 mps 729 mmHg 86%
    09:00 +3°C° 0.1 mm 3 mps 728 mmHg 83%
    10:00 +4°C° 0.1 mm 3 mps 728 mmHg 80%
    11:00 +4°C° 0.1 mm 4 mps 728 mmHg 77%
    12:00 +5°C° 0.2 mm 3 mps 728 mmHg 77%
    13:00 +5°C° 0.2 mm 3 mps 728 mmHg 77%
    14:00 +5°C° 0.2 mm 3 mps 728 mmHg 77%
    15:00 +5°C° 0.2 mm 3 mps 728 mmHg 80%
    16:00 +4°C° 0.2 mm 3 mps 728 mmHg 82%
    17:00 +4°C° 0.2 mm 3 mps 728 mmHg 84%
    18:00 +5°C° 0.3 mm 2 mps 728 mmHg 86%
    19:00 +5°C° 0.3 mm 2 mps 728 mmHg 87%
    20:00 +5°C° 0.3 mm 2 mps 728 mmHg 89%
    21:00 +4°C° 0.5 mm 2 mps 728 mmHg 90%
    22:00 +4°C° 0.5 mm 2 mps 728 mmHg 91%
    23:00 +4°C° 0.5 mm 2 mps 728 mmHg 92%

    Day after tomorrow, 25 October, Thursday

    Time Temperature Precipitation Wind Pressure Humidity
    00:00 +4°C° 0.4 mm 2 mps 728 mmHg 92%
    01:00 +4°C° 0.4 mm 2 mps 728 mmHg 92%
    02:00 +4°C° 0.4 mm 2 mps 728 mmHg 92%
    03:00 +3°C° 0.1 mm 3 mps 728 mmHg 92%
    04:00 +3°C° 0.1 mm 3 mps 728 mmHg 91%
    05:00 +3°C° 0.1 mm 4 mps 727 mmHg 91%
    06:00 +3°C° 0 mm 4 mps 727 mmHg 90%
    07:00 +2°C° 0 mm 5 mps 727 mmHg 89%
    08:00 +2°C° 0 mm 5 mps 726 mmHg 88%
    09:00 +2°C° 0.4 mm 5 mps 726 mmHg 87%
    10:00 +2°C° 0.4 mm 6 mps 725 mmHg 86%
    11:00 +2°C° 0.4 mm 6 mps 724 mmHg 86%
    12:00 +2°C° 1.2 mm 7 mps 724 mmHg 85%
    13:00 +2°C° 1.2 mm 7 mps 723 mmHg 84%
    14:00 +1°C° 1.2 mm 8 mps 722 mmHg 83%
    15:00 +1°C° 1.5 mm 8 mps 722 mmHg 83%
    16:00 +1°C° 1.5 mm 8 mps 722 mmHg 82%
    17:00 +1°C° 1.5 mm 8 mps 722 mmHg 82%
    18:00 0°C° 1.1 mm 8 mps 722 mmHg 82%
    19:00 0°C° 1.1 mm 8 mps 722 mmHg 82%
    20:00 0°C° 1.1 mm 8 mps 722 mmHg 81%
    21:00 0°C° 0.6 mm 8 mps 723 mmHg 81%
    22:00 -1°C° 0.6 mm 8 mps 724 mmHg 81%
    23:00 -1°C° 0.6 mm 7 mps 725 mmHg 81%

    26 October, Friday

    Time Temperature Precipitation Wind Pressure Humidity
    00:00 -1°C° 0.4 mm 7 mps 726 mmHg 81%
    01:00 -1°C° 0.4 mm 7 mps 727 mmHg 81%
    02:00 -1°C° 0.4 mm 6 mps 728 mmHg 81%
    03:00 -1°C° 0.1 mm 6 mps 728 mmHg 81%
    04:00 -2°C° 0.1 mm 6 mps 729 mmHg 81%
    05:00 -1°C° 0.1 mm 5 mps 730 mmHg 82%
    06:00 -1°C° 0 mm 5 mps 731 mmHg 82%
    07:00 -1°C° 0 mm 5 mps 731 mmHg 83%
    08:00 -1°C° 0 mm 5 mps 732 mmHg 84%
    09:00 0°C° 0 mm 5 mps 733 mmHg 82%
    10:00 0°C° 0 mm 5 mps 733 mmHg 81%
    11:00 +1°C° 0 mm 5 mps 734 mmHg 80%
    12:00 +1°C° 0 mm 5 mps 734 mmHg 79%
    13:00 +1°C° 0 mm 5 mps 735 mmHg 79%
    14:00 +1°C° 0 mm 4 mps 735 mmHg 79%
    15:00 +1°C° 0 mm 4 mps 736 mmHg 81%
    16:00 +2°C° 0 mm 3 mps 736 mmHg 83%
    17:00 +2°C° 0 mm 3 mps 737 mmHg 86%
    18:00 +1°C° 0.1 mm 3 mps 737 mmHg 86%
    19:00 +1°C° 0.1 mm 3 mps 738 mmHg 87%
    20:00 +1°C° 0.1 mm 3 mps 738 mmHg 88%
    21:00 +1°C° 0 mm 3 mps 738 mmHg 89%
    22:00 +1°C° 0 mm 3 mps 739 mmHg 90%
    23:00 0°C° 0 mm 3 mps 739 mmHg 91%

    27 October, Saturday

    Time Temperature Precipitation Wind Pressure Humidity
    00:00 0°C° 0 mm 3 mps 740 mmHg 91%
    01:00 0°C° 0 mm 3 mps 740 mmHg 92%
    02:00 0°C° 0 mm 3 mps 741 mmHg 92%
    03:00 0°C° 0 mm 3 mps 741 mmHg 92%
    04:00 0°C° 0 mm 3 mps 742 mmHg 93%
    05:00 0°C° 0 mm 3 mps 742 mmHg 93%
    06:00 0°C° 0 mm 3 mps 743 mmHg 92%
    07:00 0°C° 0 mm 3 mps 743 mmHg 91%
    08:00 0°C° 0 mm 3 mps 744 mmHg 90%
    09:00 0°C° 0 mm 3 mps 744 mmHg 88%
    10:00 +1°C° 0 mm 3 mps 744 mmHg 85%
    11:00 +2°C° 0 mm 3 mps 744 mmHg 83%
    12:00 +2°C° 0 mm 3 mps 744 mmHg 83%
    13:00 +2°C° 0 mm 3 mps 744 mmHg 83%
    14:00 +3°C° 0 mm 3 mps 744 mmHg 83%
    15:00 +2°C° 0 mm 3 mps 744 mmHg 85%
    16:00 +1°C° 0 mm 4 mps 743 mmHg 86%
    17:00 +1°C° 0 mm 4 mps 743 mmHg 87%
    18:00 +2°C° 0.5 mm 5 mps 742 mmHg 87%
    19:00 +2°C° 0.5 mm 5 mps 742 mmHg 88%
    20:00 +3°C° 0.5 mm 6 mps 741 mmHg 88%
    21:00 +3°C° 0.2 mm 6 mps 741 mmHg 87%
    22:00 +4°C° 0.2 mm 6 mps 741 mmHg 87%
    23:00 +5°C° 0.2 mm 5 mps 741 mmHg 87%

    28 October, Sunday

    Time Temperature Precipitation Wind Pressure Humidity
    00:00 +5°C° 0.2 mm 5 mps 741 mmHg 88%
    01:00 +5°C° 0.2 mm 4 mps 741 mmHg 89%
    02:00 +5°C° 0.2 mm 4 mps 741 mmHg 90%
    03:00 +4°C° 0.1 mm 4 mps 741 mmHg 91%
    04:00 +4°C° 0.1 mm 3 mps 741 mmHg 92%
    05:00 +4°C° 0.1 mm 3 mps 741 mmHg 93%
    06:00 +4°C° 0.1 mm 3 mps 742 mmHg 93%
    07:00 +5°C° 0.1 mm 2 mps 742 mmHg 94%
    08:00 +5°C° 0.1 mm 2 mps 742 mmHg 95%
    09:00 +6°C° 0.2 mm 2 mps 742 mmHg 94%
    10:00 +6°C° 0.2 mm 2 mps 742 mmHg 93%
    11:00 +7°C° 0.2 mm 1 mps 742 mmHg 93%
    12:00 +7°C° 0.3 mm 1 mps 742 mmHg 93%
    13:00 +7°C° 0.3 mm 1 mps 742 mmHg 94%
    14:00 +7°C° 0.3 mm 1 mps 742 mmHg 95%
    15:00 +6°C° 1.4 mm 2 mps 741 mmHg 96%
    16:00 +6°C° 1.4 mm 2 mps 741 mmHg 97%
    17:00 +6°C° 1.4 mm 2 mps 740 mmHg 98%
    18:00 +6°C° 1.9 mm 2 mps 740 mmHg 98%
    19:00 +6°C° 1.9 mm 2 mps 739 mmHg 97%
    20:00 +6°C° 1.9 mm 2 mps 739 mmHg 97%
    21:00 +6°C° 0.1 mm 2 mps 738 mmHg 97%
    22:00 +7°C° 0.1 mm 2 mps 738 mmHg 97%
    23:00 +7°C° 0.1 mm 2 mps 738 mmHg 97%

    29 October, Monday

    Time Temperature Precipitation Wind Pressure Humidity
    00:00 +8°C° 0.1 mm 3 mps 737 mmHg 94%
    01:00 +8°C° 0.1 mm 4 mps 737 mmHg 92%
    02:00 +9°C° 0.1 mm 6 mps 737 mmHg 90%
    03:00 +8°C° 0.1 mm 6 mps 738 mmHg 86%
    04:00 +6°C° 0.1 mm 7 mps 738 mmHg 82%
    05:00 +5°C° 0.1 mm 8 mps 739 mmHg 78%
    06:00 +5°C° 0 mm 7 mps 740 mmHg 77%
    07:00 +4°C° 0 mm 7 mps 742 mmHg 76%
    08:00 +4°C° 0 mm 7 mps 743 mmHg 75%
    09:00 +4°C° 0 mm 7 mps 745 mmHg 75%
    10:00 +4°C° 0 mm 6 mps 746 mmHg 74%
    11:00 +5°C° 0 mm 6 mps 747 mmHg 73%
    12:00 +6°C° 0 mm 5 mps 748 mmHg 73%
    13:00 +6°C° 0 mm 5 mps 749 mmHg 74%
    14:00 +6°C° 0 mm 4 mps 750 mmHg 74%
    15:00 +5°C° 0 mm 4 mps 750 mmHg 76%
    16:00 +4°C° 0 mm 3 mps 751 mmHg 78%
    17:00 +4°C° 0 mm 3 mps 752 mmHg 80%
    18:00 +4°C° 0 mm 2 mps 752 mmHg 83%
    19:00 +4°C° 0 mm 2 mps 753 mmHg 85%
    20:00 +4°C° 0 mm 2 mps 753 mmHg 88%
    21:00 +3°C° 0 mm 2 mps 754 mmHg 89%
    22:00 +3°C° 0 mm 2 mps 754 mmHg 91%
    23:00 +4°C° 0 mm 1 mps 755 mmHg 93%
    Show more